{"data":{"norad_id":67349,"epoch":"2026-09-19T03:55:36.040512Z","epoch_age_seconds":190833,"freshness":"STALE","line1":"1 67349U 26003R   26262.16361158  .00009116  00000+0  34031-3 0  9999","line2":"2 67349  42.9980 214.3895 0000500 255.8144 104.2652 15.27584423 38416","mean_motion":15.27584423,"eccentricity":5.0e-5,"inclination_deg":42.998,"raan_deg":214.3895,"arg_perigee_deg":255.8144,"mean_anomaly_deg":104.2652,"bstar":0.00034031,"rev_number":3841,"period_min":94.266475771729,"perigee_km":482.69279337584,"apogee_km":483.37891066104,"semimajor_km":6861.1728520184,"source":"CELESTRAK","updated_at":"2026-09-20T09:00:43.514407Z"}}